Weather History for KMSN - November, 2012

Change the Weather History Date:

Monday, November 5, 2012

  Actual Average Record
Temperature  
Mean Temperature 33 °F 41 °F  
Max Temperature 44 °F 50 °F 71 °F (1924)
Min Temperature 21 °F 33 °F 0 °F (1951)
Degree Days  
Heating Degree Days 32 24  
Month to date heating degree days 139 114  
Since 1 July heating degree days 854 827  
Cooling Degree Days 0 0  
Month to date cooling degree days 0 0  
Year to date cooling degree days 1068 568  
Moisture  
Dew Point 26 °F    
Average Humidity 76    
Maximum Humidity 96    
Minimum Humidity 55    
Precipitation  
Precipitation 0.00 in 0.08 in 1.14 in (2005)
Month to date precipitation T 0.41  
Year to date precipitation 22.86 30.76  
Snow  
Snow 0.00 in 0.00 in 2.30 in (1990)
Month to date snowfall T 0.2  
Since 1 July snowfall T 0.7  
Since 1 September snowfall T 0.7  
Snow Depth 0.00 in    
Sea Level Pressure  
Sea Level Pressure 30.20 in    
Wind  
Wind Speed 2 mph (ENE)    
Max Wind Speed 12 mph    
Max Gust Speed 14 mph    
Visibility 8 miles    
Events      
T = Trace of Precipitation, MM = Missing Value Source: NWS Daily Summary

Daily Weather History Graph

Daily Weather History Graph

Search for Another Location

Airport or City:

Trip Planner

Search our weather history database for the weather conditions in past years. The results will help you decide how hot, cold, wet, or windy it might be!

Date:

Astronomy

Nov. 05, 2012 Rise Set
Actual Time 6:37 AM CST 4:43 PM CST
Civil Twilight 6:07 AM CST 5:13 PM CST
Nautical Twilight 5:34 AM CST 5:47 PM CST
Astronomical Twilight 5:00 AM CST 6:20 PM CST
Moon 10:21 PM CST 11:57 AM CST
Length of Visible Light 11h 05m
Length of Day
10h 05m
Waning Gibbous, 62% of the Moon is Illuminated
Nov 5
Waning Gibbous
Nov 6
Last Quarter
Nov 13
New
Nov 20
First Quarter
Nov 28
Full

Hourly Weather History & Observations

Time (CST) Temp. Windchill Dew Point Humidity Pressure Visibility Wind Dir Wind Speed Gust Speed Precip Events Conditions
12:53 AM 27.0 °F - 23.0 °F 85% 30.23 in 10.0 mi Calm Calm - N/A   Clear
1:53 AM 25.0 °F - 23.0 °F 92% 30.24 in 8.0 mi Calm Calm - N/A   Clear
2:53 AM 24.1 °F - 21.9 °F 91% 30.24 in 7.0 mi Calm Calm - N/A   Clear
3:53 AM 23.0 °F - 21.0 °F 92% 30.24 in 8.0 mi Calm Calm - N/A   Clear
4:53 AM 23.0 °F - 21.0 °F 92% 30.25 in 6.0 mi Calm Calm - N/A   Clear
5:53 AM 23.0 °F 18.4 °F 21.0 °F 92% 30.24 in 7.0 mi NNW 3.5 mph - N/A   Clear
6:53 AM 23.0 °F - 19.9 °F 88% 30.25 in 5.0 mi Calm Calm - N/A   Partly Cloudy
7:37 AM 24.8 °F - 21.2 °F 86% 30.22 in 5.0 mi Calm Calm - N/A   Mostly Cloudy
7:53 AM 28.0 °F 24.2 °F 25.0 °F 88% 30.25 in 6.0 mi NNW 3.5 mph - N/A   Overcast
8:53 AM 34.0 °F - 30.0 °F 85% 30.25 in 8.0 mi Calm Calm - N/A   Mostly Cloudy
9:19 AM 37.4 °F 32.8 °F 30.2 °F 75% 30.22 in 10.0 mi ENE 5.8 mph - N/A   Scattered Clouds
9:53 AM 39.9 °F 35.1 °F 28.0 °F 63% 30.25 in 10.0 mi ENE 6.9 mph - N/A   Partly Cloudy
10:53 AM 42.1 °F 37.1 °F 28.0 °F 58% 30.26 in 10.0 mi East 8.1 mph - N/A   Mostly Cloudy
11:53 AM 41.0 °F - 27.0 °F 57% 30.25 in 10.0 mi Calm Calm - N/A   Mostly Cloudy
12:53 PM 42.1 °F 36.6 °F 28.0 °F 58% 30.21 in 10.0 mi ENE 9.2 mph - N/A   Overcast
1:53 PM 41.0 °F 38.0 °F 27.0 °F 57% 30.20 in 10.0 mi Variable 4.6 mph - N/A   Mostly Cloudy
2:53 PM 43.0 °F 40.3 °F 30.0 °F 60% 30.19 in 10.0 mi East 4.6 mph - N/A   Mostly Cloudy
3:53 PM 41.0 °F 37.1 °F 30.0 °F 65% 30.19 in 10.0 mi East 5.8 mph - N/A   Scattered Clouds
4:53 PM 37.0 °F 32.4 °F 30.0 °F 76% 30.19 in 10.0 mi East 5.8 mph - N/A   Partly Cloudy
5:53 PM 34.0 °F - 28.9 °F 82% 30.20 in 10.0 mi Calm Calm - N/A   Partly Cloudy
6:53 PM 34.0 °F 31.0 °F 28.9 °F 82% 30.19 in 10.0 mi ESE 3.5 mph - N/A   Clear
7:53 PM 30.0 °F - 28.0 °F 92% 30.18 in 10.0 mi Calm Calm - N/A   Clear
8:53 PM 30.0 °F - 27.0 °F 88% 30.17 in 8.0 mi Calm Calm - N/A   Clear
9:53 PM 28.0 °F - 27.0 °F 96% 30.15 in 4.0 mi Calm Calm - N/A   Clear
10:18 PM 28.4 °F - 26.6 °F 93% 30.11 in 2.5 mi Calm Calm - N/A   Partly Cloudy
10:33 PM 28.4 °F - 26.6 °F 93% 30.11 in 5.0 mi Calm Calm - N/A   Clear
10:53 PM 28.0 °F - 25.0 °F 88% 30.12 in 7.0 mi Calm Calm - N/A   Clear
11:53 PM 28.9 °F 25.2 °F 26.1 °F 89% 30.12 in 8.0 mi SSE 3.5 mph - N/A   Clear